Flag for Switzerland Weather past 2 weeks in Cham, Zug, Switzerland

Now
66 °F

Passing clouds.


Feels Like: 66 °F
Forecast: 46 / 70 °F
Wind: 3 mph from Northeast

Location: Zurich Town / Ville.


UV Index: 0 (Low)

Visibility: 13 mi


Pressure: 29.96 "Hg

Humidity: 49%

Dew point: 46 °F

Location of ChamLocation

Historic Weather in Cham

°F

Cham temperature yesterday

Maximum temperature yesterday: 69 °F (at 4:00 PM)
Minimum temperature yesterday: 47 °F (at 6:00 AM)
Average temperature yesterday: 57 °F

Past Weeks' High & Low Weather Summary

 TemperatureHumidityPressure
High69 °F (Apr 23, 4:00 PM)97% (Apr 18, 7:00 PM)30.34 "Hg (Apr 18, 7:00 PM)
Low35 °F (Apr 18, 9:00 PM)25% (Apr 17, 4:00 PM)29.62 "Hg (Apr 20, 6:00 PM)
Average50 °F63%30.01 "Hg
* Reported Apr 9 1:00 PM — Apr 24 1:00 PM, Cham, Weather by CustomWeather, © 2014

Note: Actual official high and low records may vary slightly from our data, if they occured in-between our weather recording intervals... More about our weather records

Advertising

Historic Weather Conditions — Data for Previous 24 hours

 ConditionsComfort  
Time TempWeatherWind HumidityBarometerVisibility
1:00 PM
Apr 24
65 °FMild.3 mph50%29.99 "HgN/A
12:00 PM62 °FRefreshingly cool.2 mph58%30.03 "HgN/A
11:00 AM61 °FCool.2 mph61%30.05 "HgN/A
10:00 AM57 °FCool.2 mph66%30.07 "HgN/A
9:00 AM54 °FCool.1 mph76%30.08 "HgN/A
8:00 AM52 °FPassing clouds.1 mph79%30.09 "Hg22 mi
7:00 AM49 °FCool.No wind88%30.10 "HgN/A
6:00 AM49 °FCool.1 mph87%30.09 "HgN/A
5:00 AM50 °FCool.1 mph85%30.10 "HgN/A
4:00 AM50 °FCool.2 mph85%30.10 "HgN/A
3:00 AM52 °FCool.2 mph77%30.10 "HgN/A
2:00 AM54 °FCool.3 mph71%30.10 "HgN/A
1:00 AM56 °FCool.6 mph64%30.09 "HgN/A
12:00 AM58 °FCool.8 mph62%30.07 "HgN/A
11:00 PM
Apr 23
57 °FCool.3 mph62%30.05 "HgN/A
10:00 PM58 °FRefreshingly cool.5 mph59%30.03 "HgN/A
9:00 PM60 °FRefreshingly cool.2 mph57%30.01 "HgN/A
8:00 PM64 °FPassing clouds.2 mph43%29.97 "Hg19 mi
7:00 PM67 °FMild.6 mph40%29.95 "HgN/A
6:00 PM66 °FMild.6 mph42%29.95 "HgN/A
5:00 PM69 °FMild.9 mph38%29.95 "HgN/A
4:00 PM69 °FMild.7 mph41%29.96 "HgN/A
3:00 PM67 °FMild.7 mph40%29.99 "HgN/A
Weather by CustomWeather, © 2014

See weather overview